When you browse on this site, cookies collect data to enhance your experience and personalize the content and advertising you see.
Visit our Privacy Policy to learn more. By continuing to use the site, you agree to this use of cookies and data.
  • In Switzerland
  • List of Countries
  • For 7 days
  • Water Temperature
  • Weather Map
  • Weather Widgets
  • user-avatar
    Login

    Hourly Weather Korosten

    Today, 17 February, Monday

    Time Temperature Precipitation Wind Pressure Humidity
    00:00 -1°C° 0 mm 7 mps 750 mmHg 75%
    01:00 -1°C° 0 mm 6 mps 750 mmHg 75%
    02:00 -1°C° 0 mm 6 mps 750 mmHg 76%
    03:00 -1°C° 0 mm 6 mps 749 mmHg 76%
    04:00 -1°C° 0 mm 6 mps 748 mmHg 76%
    05:00 -1°C° 0 mm 7 mps 748 mmHg 77%
    06:00 -1°C° 0 mm 7 mps 748 mmHg 77%
    07:00 -1°C° 0 mm 6 mps 748 mmHg 76%
    08:00 0°C° 0 mm 7 mps 748 mmHg 76%
    09:00 +2°C° 0 mm 7 mps 747 mmHg 72%
    10:00 +3°C° 0 mm 6 mps 747 mmHg 68%
    11:00 +4°C° 0 mm 6 mps 747 mmHg 64%
    12:00 +5°C° 0 mm 6 mps 747 mmHg 61%
    13:00 +7°C° 0 mm 6 mps 747 mmHg 58%
    14:00 +8°C° 0 mm 4 mps 747 mmHg 56%
    15:00 +7°C° 0 mm 4 mps 747 mmHg 59%
    16:00 +7°C° 0 mm 4 mps 746 mmHg 63%
    17:00 +6°C° 0 mm 4 mps 746 mmHg 67%
    18:00 +5°C° 0 mm 4 mps 746 mmHg 70%
    19:00 +5°C° 0 mm 4 mps 747 mmHg 73%
    20:00 +4°C° 0 mm 4 mps 747 mmHg 77%
    21:00 +4°C° 0 mm 3 mps 747 mmHg 78%
    22:00 +4°C° 0 mm 3 mps 747 mmHg 79%
    23:00 +4°C° 0 mm 3 mps 746 mmHg 79%

    Tomorrow, 18 February, Tuesday

    Time Temperature Precipitation Wind Pressure Humidity
    00:00 +5°C° 0 mm 2 mps 746 mmHg 80%
    01:00 +5°C° 0 mm 2 mps 746 mmHg 81%
    02:00 +5°C° 0 mm 2 mps 746 mmHg 82%
    03:00 +5°C° 0 mm 2 mps 746 mmHg 83%
    04:00 +5°C° 0 mm 2 mps 745 mmHg 84%
    05:00 +5°C° 0 mm 2 mps 745 mmHg 85%
    06:00 +4°C° 0.1 mm 2 mps 745 mmHg 86%
    07:00 +4°C° 0.1 mm 2 mps 745 mmHg 87%
    08:00 +4°C° 0.1 mm 2 mps 745 mmHg 89%
    09:00 +3°C° 0.4 mm 3 mps 745 mmHg 90%
    10:00 +3°C° 0.4 mm 3 mps 744 mmHg 92%
    11:00 +4°C° 0.4 mm 4 mps 744 mmHg 94%
    12:00 +4°C° 0.1 mm 4 mps 744 mmHg 91%
    13:00 +5°C° 0.1 mm 4 mps 745 mmHg 88%
    14:00 +6°C° 0.1 mm 4 mps 745 mmHg 86%
    15:00 +6°C° 0 mm 4 mps 745 mmHg 84%
    16:00 +6°C° 0 mm 4 mps 745 mmHg 82%
    17:00 +7°C° 0 mm 3 mps 745 mmHg 80%
    18:00 +5°C° 0 mm 4 mps 745 mmHg 81%
    19:00 +4°C° 0 mm 4 mps 746 mmHg 81%
    20:00 +4°C° 0 mm 4 mps 746 mmHg 82%
    21:00 +3°C° 0 mm 4 mps 746 mmHg 82%
    22:00 +3°C° 0 mm 4 mps 746 mmHg 83%
    23:00 +1°C° 0 mm 4 mps 747 mmHg 83%

    Day after tomorrow, 19 February, Wednesday

    Time Temperature Precipitation Wind Pressure Humidity
    00:00 +1°C° 0 mm 4 mps 747 mmHg 85%
    01:00 +1°C° 0 mm 4 mps 747 mmHg 87%
    02:00 0°C° 0 mm 4 mps 747 mmHg 89%
    03:00 0°C° 0 mm 4 mps 747 mmHg 90%
    04:00 0°C° 0 mm 4 mps 747 mmHg 91%
    05:00 -1°C° 0 mm 4 mps 747 mmHg 91%
    06:00 -1°C° 0 mm 4 mps 747 mmHg 91%
    07:00 0°C° 0 mm 3 mps 747 mmHg 92%
    08:00 0°C° 0 mm 3 mps 747 mmHg 92%
    09:00 +1°C° 0 mm 3 mps 747 mmHg 84%
    10:00 +1°C° 0 mm 4 mps 747 mmHg 76%
    11:00 +4°C° 0 mm 4 mps 747 mmHg 68%
    12:00 +4°C° 0 mm 4 mps 747 mmHg 64%
    13:00 +5°C° 0 mm 4 mps 747 mmHg 60%
    14:00 +6°C° 0 mm 4 mps 746 mmHg 55%
    15:00 +5°C° 0 mm 3 mps 746 mmHg 59%
    16:00 +4°C° 0 mm 3 mps 746 mmHg 63%
    17:00 +5°C° 0 mm 2 mps 745 mmHg 66%
    18:00 +4°C° 0 mm 2 mps 745 mmHg 69%
    19:00 +3°C° 0 mm 2 mps 745 mmHg 72%
    20:00 +3°C° 0 mm 2 mps 746 mmHg 74%
    21:00 +3°C° 0 mm 2 mps 745 mmHg 75%
    22:00 +2°C° 0 mm 2 mps 745 mmHg 76%
    23:00 +2°C° 0 mm 2 mps 745 mmHg 77%

    20 February, Thursday

    Time Temperature Precipitation Wind Pressure Humidity
    00:00 +2°C° 0 mm 2 mps 745 mmHg 79%
    01:00 +2°C° 0 mm 2 mps 745 mmHg 82%
    02:00 +1°C° 0 mm 2 mps 745 mmHg 84%
    03:00 +1°C° 0 mm 2 mps 745 mmHg 85%
    04:00 +1°C° 0 mm 2 mps 745 mmHg 87%
    05:00 +1°C° 0 mm 2 mps 745 mmHg 89%
    06:00 +1°C° 0 mm 2 mps 745 mmHg 90%
    07:00 +1°C° 0 mm 2 mps 745 mmHg 90%
    08:00 +1°C° 0 mm 2 mps 745 mmHg 91%
    09:00 +2°C° 0 mm 2 mps 746 mmHg 88%
    10:00 +3°C° 0 mm 2 mps 746 mmHg 85%
    11:00 +4°C° 0 mm 2 mps 746 mmHg 82%
    12:00 +3°C° 0 mm 3 mps 746 mmHg 82%
    13:00 +3°C° 0 mm 3 mps 747 mmHg 82%
    14:00 +3°C° 0 mm 3 mps 747 mmHg 82%
    15:00 +3°C° 0 mm 3 mps 747 mmHg 81%
    16:00 +3°C° 0 mm 3 mps 747 mmHg 81%
    17:00 +3°C° 0 mm 2 mps 747 mmHg 81%
    18:00 +3°C° 0 mm 2 mps 748 mmHg 82%
    19:00 +3°C° 0 mm 2 mps 748 mmHg 83%
    20:00 +3°C° 0 mm 2 mps 749 mmHg 83%
    21:00 +2°C° 0 mm 2 mps 749 mmHg 85%
    22:00 +2°C° 0 mm 2 mps 749 mmHg 87%
    23:00 +2°C° 0 mm 2 mps 750 mmHg 88%

    21 February, Friday

    Time Temperature Precipitation Wind Pressure Humidity
    00:00 +2°C° 0 mm 2 mps 750 mmHg 90%
    01:00 +2°C° 0 mm 2 mps 750 mmHg 91%
    02:00 +2°C° 0 mm 1 mps 750 mmHg 92%
    03:00 +2°C° 0 mm 1 mps 750 mmHg 92%
    04:00 +2°C° 0 mm 1 mps 750 mmHg 92%
    05:00 +2°C° 0 mm 1 mps 750 mmHg 92%
    06:00 +2°C° 0 mm 1 mps 750 mmHg 91%
    07:00 +1°C° 0 mm 1 mps 750 mmHg 90%
    08:00 +1°C° 0 mm 1 mps 750 mmHg 89%
    15:00 +4°C° 0 mm 4 mps 748 mmHg 59%
    16:00 +4°C° 0 mm 4 mps 748 mmHg 61%
    17:00 +3°C° 0 mm 3 mps 747 mmHg 64%
    18:00 +3°C° 0 mm 3 mps 747 mmHg 66%
    19:00 +3°C° 0 mm 4 mps 747 mmHg 69%
    20:00 +1°C° 0 mm 4 mps 747 mmHg 72%
    21:00 +1°C° 0.4 mm 4 mps 747 mmHg 80%
    22:00 +2°C° 0.4 mm 3 mps 747 mmHg 88%
    23:00 +1°C° 0.4 mm 3 mps 747 mmHg 96%

    22 February, Saturday

    Time Temperature Precipitation Wind Pressure Humidity
    00:00 0°C° 0.3 mm 4 mps 748 mmHg 96%
    01:00 0°C° 0.3 mm 5 mps 748 mmHg 96%
    02:00 0°C° 0.3 mm 5 mps 748 mmHg 95%
    03:00 0°C° 0.1 mm 5 mps 749 mmHg 93%
    04:00 0°C° 0.1 mm 5 mps 749 mmHg 92%
    05:00 -1°C° 0.1 mm 5 mps 749 mmHg 90%
    06:00 -1°C° 0 mm 4 mps 750 mmHg 90%
    07:00 -1°C° 0 mm 4 mps 750 mmHg 90%
    08:00 -2°C° 0 mm 4 mps 751 mmHg 91%
    09:00 -1°C° 0 mm 4 mps 751 mmHg 87%
    10:00 0°C° 0 mm 4 mps 751 mmHg 83%
    11:00 +1°C° 0 mm 4 mps 752 mmHg 78%
    12:00 +1°C° 0 mm 4 mps 751 mmHg 75%
    13:00 +3°C° 0 mm 4 mps 751 mmHg 71%
    14:00 +3°C° 0 mm 4 mps 751 mmHg 68%
    15:00 +3°C° 0 mm 4 mps 751 mmHg 69%
    16:00 +2°C° 0 mm 5 mps 750 mmHg 70%
    17:00 +2°C° 0 mm 5 mps 750 mmHg 72%
    18:00 +2°C° 0 mm 5 mps 749 mmHg 72%
    19:00 +1°C° 0 mm 5 mps 749 mmHg 72%
    20:00 +1°C° 0 mm 5 mps 748 mmHg 72%
    21:00 +1°C° 0 mm 6 mps 748 mmHg 71%
    22:00 0°C° 0 mm 7 mps 747 mmHg 71%
    23:00 0°C° 0 mm 7 mps 746 mmHg 70%
    Show more